sat.trackr.live / text

‹ back to catalog

STARLINK-3136

NORAD 49443 · 2021-104AM

PAYLOAD ACTIVE UNKNOWN

§ Identity

Operator
Country
US
Launch date
2021-11-13
Launch site
AFETR
Launch vehicle
Mass (kg)
RCS (m²)

Purposes: comms

External: N2YO · Heavens-Above · Gunter

§ Orbital elements

Epoch: 2026-05-25T05:18:30.658752Z

Period
95.36 min
Inclination
53.2144°
Eccentricity
0.0001789
Mean motion
15.10079326 rev/d
Perigee alt
534.7 km
Apogee alt
537.2 km
Semi-major
6,914.1 km
B*
9.8727e-4
RAAN
225.3646°
Arg perigee
23.8994°
Mean anomaly
336.2081°
Rev number
25,047

§ Raw data

STARLINK-31361 49443U 21104AM  26145.22118818  .00016002  00000+0  98727-3 0  99952 49443  53.2144 225.3646 0001789  23.8994 336.2081 15.10079326250478

JSON: /api/v1/satellites/49443 · /tle

For live sub-satellite position, see the globe view (requires WebGL).

§ Visibility from observer

Set your observer location to see the next 7 days of passes ≥ 10°. The values pass through the URL so the page stays shareable.

No JS? Fill the form by hand. The geolocation button needs JavaScript.